User: anonymous   Login
Location: Budapest
(47.4979°N, 19.0402°E)
Time: 13:52:42
(UTC+01:00)
Language:

BUGSAT 1 - Orbit

View from above orbital plane
View from above orbital plane
View from above satellite
View from above satellite

Ground track
Ground track

The orbit data is extracted from the following two-line orbital elements,

1 40014U 14033E   17327.08740045  .00000552  00000-0  55713-4 0  9995
2 40014  97.9615 254.1478 0032205 156.0867 204.1864 14.94910458186942
Epoch (UTC): 23 November 2017 02:05:51
Eccentricity: 0.0032205
inclination: 97.9615°
perigee height: 560 km
apogee height: 605 km
right ascension of ascending node: 254.1478°
argument of perigee: 156.0867°
revolutions per day: 14.94910458
mean anomaly at epoch: 204.1864°
orbit number at epoch: 18694

The dashed part of the orbit path shows where the satellite is in the earth's shadow,  

DLR